Other Public Products
Issued by NWS Charleston, SC

Current Version | Previous Version | Graphics & Text | Print | Product List | Glossary On
Versions: 1 2 3 4 5 6 7 8 9 10 11 12 13 14 15 16 17 18 19 20 21 22 23 24 25 26 27 28 29 30 31 32 33 34 35 36 37 38 39 40 41 42 43 44 45 46 47 48 49 50
324
FPUS82 KCHS 242027
OPUCHS

TEST...KCHS/KSAV Gateway Observations...TEST
National Weather Service Charleston SC
300 PM EST SAT FEB 24 2018

NOTE: "fair" indicates few or no clouds below 12,000 feet with no
significant weather and/or obstructions to visibility.

SCZ050-WAZ558-NCZ071-TXZ119-213-PAZ071-DCZ001-FLZ074-172-MI076-
NYZ176-178-MAZ016-IL014-TNZ027-NJZ106-GAZ044-MD014-242100-

...Gateway Observations for Charleston International...

CITY           SKY/WX    TMP DP  RH WIND       PRES   REMARKS
Chas Airport   FAIR      81  61  50 SW13      30.15F
Seattle        CLOUDY    41  31  67 N3        30.11R
Charlotte      PTSUNNY   77  60  55 SW15      30.09F
Dallas DFW     CLOUDY    59  51  75 NW15      29.85F
Dallas Love    PTSUNNY   56  51  84 NW12      29.86F
Philladelphia  CLOUDY    48  46  93 E7        30.13F FOG
Wash National  LGT RAIN  52  50  93 NE8       30.12F
Baltimore      LGT RAIN  50  47  89 NE10      30.12F
Miami          FAIR      81  67  62 E16       30.14F
Detroit        CLOUDY    40  32  73 NE12      30.12F WCI  33
Newark         LGT RAIN  52  40  63 N12       30.14F
Laguardia      CLOUDY    51  39  63 NW7       30.14R
J F K          CLOUDY    53  40  61 N9        30.14S
Boston Logan   CLOUDY    53  35  50 NW10      30.11R
Ft. Lauderdale FAIR      80  69  69 SE18      30.13F
Chicago O`Hare CLOUDY    40  32  73 E13       29.95F WCI  32
Chicago Midway CLOUDY    41  34  76 NE12      29.96F
Houston Bush   CLOUDY    80  64  58 S14G28    29.88F
Houston Hobby  PTSUNNY   78  68  71 S18G29    29.89F
Nashville      CLOUDY    76  60  57 S16G25    29.92F
Atlanta        FAIR      78  58  49 SW17G24   30.08F

$$

GAZ044-118-TXZ119-213-NCZ071-DCZ001-MDZ014-506-PAZ021-071-NJZ106-
NYZ176-178-MAZ106-OHZ011-021-055-MIZ076-KYZ091-ILZ014-INZ047-
MNZ060-ONZ431-242100-

...Gateway Observations for Savannah International...

CITY           SKY/WX    TMP DP  RH WIND       PRES   REMARKS
Savannah Arpt  FAIR      82  65  56 SE16      30.14F
Atlanta        FAIR      78  58  49 SW17G24   30.08F
Charlotte      PTSUNNY   77  60  55 SW15      30.09F
Dallas DFW     CLOUDY    59  51  75 NW15      29.85F
Houston Bush   CLOUDY    80  64  58 S14G28    29.88F
Wash National  LGT RAIN  52  50  93 NE8       30.12F
Wash Dulles    LGT RAIN  51  50  96 E3        30.12F
Baltimore      LGT RAIN  50  47  89 NE10      30.12F
Philadelphia   CLOUDY    48  46  93 E7        30.13F FOG
Newark         LGT RAIN  52  40  63 N12       30.14F
Laguardia      CLOUDY    51  39  63 NW7       30.14R
J F K          CLOUDY    53  40  61 N9        30.14S
Boston         CLOUDY    53  35  50 NW10      30.11R
Pittsburg      CLOUDY    47  45  93 E9        30.06F
Akron          CLOUDY    45  42  89 E7        30.04F
Cleveland      CLOUDY    39  35  86 N13       30.13F WCI  31
Cincinnati     CLOUDY    55  51  86 E10       29.93F
Columbus       CLOUDY    50  48  93 E9        29.99F
Detroit        CLOUDY    40  32  73 NE12      30.12F WCI  33
Chicago O`Hare CLOUDY    40  32  73 E13       29.95F WCI  32
Minneapolis    LGT SNOW  27  23  85 NE7       29.84F FOG     WCI  19
Indianapolis   CLOUDY    49  48  97 E14       29.92F
Toronto Canada PTSUNNY   39  25  56 E5        30.19F WCI  36

$$




USA.gov is the U.S. government's official web portal to all federal, state and local government web resources and services.